User: anonymous   Login
Location: Bangkok
(13.7500°N, 100.5170°E)
Time: 10:16:16
(UTC+07:00)
Language:

ERBS - Orbit

View from above orbital plane
View from above orbital plane
View from above satellite
View from above satellite

Ground track
Ground track

The orbit data is extracted from the following two-line orbital elements,

1 15354U 84108B   15144.45992919  .00004813  00000-0  14685-3 0  9995
2 15354 057.0100 131.1203 0018810 106.3780 253.9341 15.35653723681919
Epoch (UTC): 24 May 2015 11:02:17
Eccentricity: 0.0018810
inclination: 57.0100°
perigee height: 446 km
apogee height: 472 km
right ascension of ascending node: 131.1203°
argument of perigee: 106.3780°
revolutions per day: 15.35653723
mean anomaly at epoch: 253.9341°
orbit number at epoch: 68191

The dashed part of the orbit path shows where the satellite is in the earth's shadow,  

DLR